RA67307 UUBI-UUBP

Flight info

Callsign RA67307
Flight time N/A
Altitude 34000
Route N0480F340 ROKUR T654 NENVA M864 TEKBO N858 BULAT T757 SOTOG N181 LIMPI T461 OLFID
Aircraft C500/M-VGDW/C

Departure

Time 2026-04-30 08:10
Airport Ivanovo South Airport (UUBI)

Arrival

Time N/A
Airport Bryansk International Airport (UUBP)
Time Latitude Longitude Altitude Speed Heading
2026-04-30 08:00 56.94150 40.94265 407 ft 0 kts 121°
2026-04-30 08:09 56.94149 40.94267 410 ft 4 kts 121°
2026-04-30 08:09 56.94121 40.94290 407 ft 5 kts 232°
2026-04-30 08:09 56.94056 40.94186 408 ft 14 kts 212°
2026-04-30 08:09 56.93979 40.94064 409 ft 16 kts 263°
2026-04-30 08:10 56.94188 40.93381 410 ft 113 kts 301°
2026-04-30 08:10 56.94665 40.91920 1221 ft 146 kts 303°
2026-04-30 08:10 56.95234 40.90269 2498 ft 163 kts 302°
2026-04-30 08:10 56.95851 40.88366 3565 ft 188 kts 302°
2026-04-30 08:11 56.96579 40.86171 4626 ft 213 kts 302°
2026-04-30 08:11 56.97240 40.83701 6081 ft 220 kts 282°
2026-04-30 08:11 56.96905 40.80973 7495 ft 230 kts 238°
2026-04-30 08:11 56.95626 40.79265 8857 ft 239 kts 198°
2026-04-30 08:12 56.93971 40.79444 10268 ft 246 kts 158°
2026-04-30 08:12 56.92681 40.81534 11582 ft 253 kts 123°
2026-04-30 08:12 56.91810 40.84356 12811 ft 260 kts 121°
2026-04-30 08:12 56.90790 40.87143 14054 ft 266 kts 128°
2026-04-30 08:13 56.89540 40.89679 15125 ft 270 kts 137°
2026-04-30 08:13 56.88076 40.91801 16174 ft 274 kts 148°
2026-04-30 08:13 56.86348 40.93302 17280 ft 276 kts 161°
2026-04-30 08:13 56.84502 40.94415 18419 ft 281 kts 163°
2026-04-30 08:14 56.82641 40.95611 19494 ft 284 kts 161°
2026-04-30 08:14 56.80812 40.96940 20628 ft 287 kts 160°
2026-04-30 08:14 56.78941 40.98306 21702 ft 291 kts 162°
2026-04-30 08:14 56.77033 40.99661 22712 ft 295 kts 163°
2026-04-30 08:15 56.75123 41.00997 23659 ft 298 kts 163°
2026-04-30 08:15 56.73172 41.02377 24432 ft 303 kts 163°
2026-04-30 08:15 56.71193 41.03774 25143 ft 307 kts 163°
2026-04-30 08:15 56.69203 41.05183 25847 ft 311 kts 163°
2026-04-30 08:16 56.67163 41.06619 26539 ft 316 kts 162°
2026-04-30 08:16 56.65094 41.08074 27216 ft 320 kts 162°
2026-04-30 08:16 56.62983 41.09435 27875 ft 322 kts 170°
2026-04-30 08:16 56.60760 41.09564 28510 ft 321 kts 189°
2026-04-30 08:17 56.58611 41.08700 29227 ft 319 kts 200°
2026-04-30 08:17 56.56524 41.07272 29973 ft 319 kts 204°
2026-04-30 08:17 56.54476 41.05781 30606 ft 320 kts 202°
2026-04-30 08:17 56.52344 41.04461 31156 ft 322 kts 199°
2026-04-30 08:18 56.50199 41.03211 31718 ft 324 kts 200°
2026-04-30 08:18 56.48071 41.01914 32277 ft 325 kts 200°
2026-04-30 08:18 56.45932 41.00571 32836 ft 327 kts 200°
2026-04-30 08:18 56.44490 40.99675 33216 ft 328 kts 200°
2026-04-30 08:19 56.41603 40.97906 33975 ft 330 kts 200°
2026-04-30 08:19 56.40892 40.97471 34114 ft 332 kts 200°
2026-04-30 08:19 56.37879 40.95622 34200 ft 354 kts 200°
2026-04-30 08:19 56.35502 40.94162 34217 ft 370 kts 200°
2026-04-30 08:20 56.34662 40.93648 34219 ft 375 kts 200°
2026-04-30 08:20 56.29565 40.90536 34219 ft 401 kts 200°
2026-04-30 08:20 56.27788 40.89452 34221 ft 408 kts 200°
2026-04-30 08:21 56.22295 40.86108 34214 ft 426 kts 200°
2026-04-30 08:21 56.16653 40.82374 34218 ft 438 kts 207°
2026-04-30 08:22 56.10748 40.75027 34220 ft 447 kts 225°
2026-04-30 08:22 56.06880 40.66269 34222 ft 453 kts 240°
2026-04-30 08:23 56.04472 40.55930 34218 ft 456 kts 256°
2026-04-30 08:23 56.03705 40.44811 34221 ft 428 kts 269°
2026-04-30 08:23 56.03653 40.39638 34216 ft 405 kts 269°
2026-04-30 08:24 56.03598 40.34799 34204 ft 385 kts 269°
2026-04-30 08:24 56.03545 40.30122 34203 ft 368 kts 269°
2026-04-30 08:24 56.03494 40.25578 34203 ft 361 kts 269°
2026-04-30 08:25 56.03386 40.16558 34209 ft 367 kts 269°
2026-04-30 08:25 56.03269 40.07367 34208 ft 371 kts 269°
2026-04-30 08:26 56.03142 39.98099 34210 ft 375 kts 269°
2026-04-30 08:26 56.03010 39.88810 34214 ft 377 kts 269°
2026-04-30 08:27 56.02867 39.79331 34215 ft 382 kts 269°
2026-04-30 08:27 56.02718 39.69832 34224 ft 385 kts 269°
2026-04-30 08:28 56.02030 39.60336 34225 ft 389 kts 255°
2026-04-30 08:28 56.00343 39.51102 34223 ft 391 kts 252°
2026-04-30 08:29 55.98933 39.43433 34228 ft 392 kts 252°
2026-04-30 08:29 55.96926 39.32649 34228 ft 394 kts 252°
2026-04-30 08:30 55.95190 39.23339 34223 ft 395 kts 252°
2026-04-30 08:30 55.93440 39.14020 34222 ft 396 kts 252°
2026-04-30 08:31 55.91679 39.04677 34224 ft 398 kts 252°
2026-04-30 08:31 55.90204 38.96891 34219 ft 405 kts 252°
2026-04-30 08:32 55.88674 38.88846 34226 ft 415 kts 252°
2026-04-30 08:32 55.86793 38.79008 34227 ft 424 kts 252°